Location: Newark
(13.6797°N, 8.5297°E)
Time: 17:51:36
(UTC+00:00)

Courier 1B Rocket - Pass Details

Date: 19 January 2020
Orbit: 920 x 1202 km, 28.2° (Epoch: 21 February)

Event Time Altitude Azimuth Distance (km) Brightness Sun altitude
Rises 15:02:33 0° 294° (WNW) 3,643 8.4 29.0°
Reaches altitude 10° 15:05:58 10° 311° (NW) 2,658 7.6 28.3°
Maximum altitude 15:10:35 21° 358° (N) 1,966 6.5 27.3°
Drops below altitude 10° 15:15:08 10° 45° (NE) 2,602 6.8 26.4°
Sets 15:18:26 0° 61° (ENE) 3,545 7.4 25.7°
